Indianapolis, IN

4:18 AM EST on December 09, 2016 (GMT -0500)
Indianapolis International

Weather History for KIND - June, 2012

Change the Weather History Date:

Friday, June 15, 2012

  Actual Average Record
Temperature  
Mean Temperature 75 °F 72 °F  
Max Temperature 91 °F 82 °F 94 °F (1952)
Min Temperature 59 °F 62 °F 45 °F (1917)
Degree Days  
Heating Degree Days 0 0  
Month to date heating degree days 15 13  
Since 1 June heating degree days 15 13  
Since 1 July heating degree days 4116 5375  
Cooling Degree Days 10 8  
Month to date cooling degree days 79 90  
Year to date cooling degree days 289 174  
Since 1 June cooling degree days 79 90  
Growing Degree Days 25 (Base 50)    
Moisture  
Dew Point 48 °F    
Average Humidity 46    
Maximum Humidity 75    
Minimum Humidity 17    
Precipitation  
Precipitation 0.00 in 0.13 in 1.82 in (1875)
Month to date precipitation 0.05 2.12  
Year to date precipitation 15.11 19.52  
Snow  
Snow 0.00 in 0.00 in 0.00 in ()
Month to date snowfall 0.0 0.0  
Since 1 June snowfall 0.0 0.0  
Since 1 July snowfall 9.8 25.9  
Snow Depth 0.00 in    
Sea Level Pressure  
Sea Level Pressure 30.07 in    
Wind  
Wind Speed 5 mph (SE)    
Max Wind Speed 12 mph    
Max Gust Speed 17 mph    
Visibility 10 miles    
Events      
T = Trace of Precipitation, MM = Missing Value Source: NWS Daily Summary

Daily Weather History Graph

Daily Weather History Graph

Search for Another Location

Airport or City:

Trip Planner

Search our weather history database for the weather conditions in past years. The results will help you decide how hot, cold, wet, or windy it might be!

Date:

Astronomy

Jun. 15, 2012 Rise Set
Actual Time 6:16 AM EDT 9:15 PM EDT
Civil Twilight 5:44 AM EDT 9:47 PM EDT
Nautical Twilight 5:02 AM EDT 10:28 PM EDT
Astronomical Twilight 4:14 AM EDT 11:16 PM EDT
Moon 3:30 AM EDT (6/15) 5:54 PM EDT (6/15)
Length of Visible Light 16h 03m
Length of Day
14h 58m
Waning Crescent, 14% of the Moon is Illuminated
Jun 15
Waning Crescent
Jun 19
New
Jun 26
First Quarter
Jul 3
Full
Jul 10
Last Quarter

Hourly Weather History & Observations

Time (EDT) Temp. Dew Point Humidity Pressure Visibility Wind Dir Wind Speed Gust Speed Precip Events Conditions
12:54 AM 69.1 °F 46.9 °F 45% 30.05 in 10.0 mi ESE 5.8 mph - N/A   Clear
1:54 AM 69.1 °F 46.9 °F 45% 30.06 in 10.0 mi ESE 4.6 mph - N/A   Clear
2:54 AM 69.1 °F 46.9 °F 45% 30.06 in 10.0 mi East 3.5 mph - N/A   Clear
3:54 AM 66.9 °F 48.0 °F 51% 30.06 in 10.0 mi Calm Calm - N/A   Clear
4:54 AM 63.0 °F 48.9 °F 60% 30.06 in 10.0 mi Calm Calm - N/A   Clear
5:54 AM 62.1 °F 50.0 °F 65% 30.08 in 10.0 mi Calm Calm - N/A   Clear
6:54 AM 59.0 °F 51.1 °F 75% 30.10 in 9.0 mi Calm Calm - N/A   Partly Cloudy
7:54 AM 66.9 °F 52.0 °F 59% 30.11 in 10.0 mi East 6.9 mph - N/A   Partly Cloudy
8:54 AM 71.1 °F 52.0 °F 51% 30.12 in 10.0 mi ESE 3.5 mph - N/A   Partly Cloudy
9:54 AM 75.9 °F 52.0 °F 43% 30.12 in 10.0 mi Variable 5.8 mph - N/A   Partly Cloudy
10:54 AM 80.1 °F 51.1 °F 36% 30.10 in 10.0 mi SSE 5.8 mph - N/A   Partly Cloudy
11:54 AM 82.0 °F 48.9 °F 31% 30.10 in 10.0 mi Calm Calm - N/A   Scattered Clouds
12:54 PM 84.2 °F 48.2 °F 29% 30.11 in 10.0 mi South 5.8 mph - N/A   Scattered Clouds
1:54 PM 87.1 °F 44.1 °F 22% 30.08 in 10.0 mi NNW 4.6 mph - N/A   Scattered Clouds
2:54 PM 88.0 °F 43.0 °F 21% 30.07 in 10.0 mi Variable 5.8 mph - N/A   Scattered Clouds
3:54 PM 89.1 °F 44.1 °F 21% 30.06 in 10.0 mi Variable 3.5 mph - N/A   Scattered Clouds
4:54 PM 90.0 °F 39.9 °F 17% 30.06 in 10.0 mi Variable 5.8 mph - N/A   Scattered Clouds
5:54 PM 90.0 °F 42.1 °F 19% 30.05 in 10.0 mi Variable 5.8 mph 17.3 mph N/A   Scattered Clouds
7:54 PM 87.1 °F 46.0 °F 24% 30.05 in 10.0 mi SE 9.2 mph - N/A   Partly Cloudy
8:54 PM 82.0 °F 48.0 °F 30% 30.05 in 10.0 mi SE 8.1 mph - N/A   Partly Cloudy
9:54 PM 78.1 °F 51.1 °F 39% 30.05 in 10.0 mi SSE 6.9 mph - N/A   Partly Cloudy
10:54 PM 77.0 °F 53.1 °F 43% 30.06 in 10.0 mi SE 6.9 mph - N/A   Partly Cloudy
11:54 PM 75.0 °F 54.0 °F 48% 30.06 in 10.0 mi SE 5.8 mph - N/A   Clear